324P/La Sagra (2010)

Japanese version
Home page
Updated on June 13, 2015

---------------------------------------------------------------------

* Profile

Designation 324P/2010 R2
Discovery Date September 14, 2010
Magnitude 18.4 mag
Discoverer J. Nomen (La Sagra Observatory)

* Pictures

* Orbital Elements

Epoch 2010 June 13.0 TT = JDT 2455360.5
T 2010 June 25.78399 TT                                 MPCW
q   2.6226473            (2000.0)            P               Q
n   0.18075516     Peri.   59.53556     +0.80916779     +0.46060640
a   3.0979584      Node   270.75827     -0.58047329     +0.72290049
e   0.1534272      Incl.   21.39810     +0.09109469     +0.51503071
P   5.45
From 405 observations 2010 Aug. 12-2015 May 22, mean residual 0".6.

* Magnitudes Graph

        H = 17.5  G = 0.15                      [   ,  0]  (             - 2010 June 25)
        m1 = -17 + 5 log d + 80 log r(t - 100)  [  0,300]  (2010 June 25 - 2011 Apr. 21)
        H = 17.5  G = 0.15                      [300,   ]  (2011 Apr. 21 -             )

---------------------------------------------------------------------

The orbital elements are published on M.P.E.C. 2015-K101.
The magnitudes graphs are made with Comet for Windows.

---------------------------------------------------------------------

Copyright(C) Seiichi Yoshida (comet@aerith.net). All rights reserved.